When you browse on this site, cookies collect data to enhance your experience and personalize the content and advertising you see.
Visit our Privacy Policy to learn more. By continuing to use the site, you agree to this use of cookies and data.
  • In Lithuania
  • List of Countries
  • For 7 days
  • Water Temperature
  • Satellite Maps
  • Weather Map
  • Weather Widgets
  • user-avatar
    Login

    Hourly Weather Kazanow

    Today, 24 February, Sunday

    Time Temperature Precipitation Wind Pressure Humidity
    00:00 -1°C° 0 mm 1 mps 763 mmHg 37%
    01:00 -1°C° 0 mm 1 mps 763 mmHg 36%
    02:00 -1°C° 0 mm 1 mps 763 mmHg 35%
    03:00 -1°C° 0 mm 1 mps 762 mmHg 34%
    04:00 -1°C° 0 mm 0 mps 762 mmHg 33%
    05:00 -1°C° 0 mm 0 mps 762 mmHg 32%
    06:00 -1°C° 0 mm 0 mps 762 mmHg 31%
    07:00 +1°C° 0 mm 1 mps 762 mmHg 30%
    08:00 +2°C° 0 mm 1 mps 762 mmHg 29%
    09:00 +2°C° 0 mm 1 mps 762 mmHg 27%
    10:00 +3°C° 0 mm 1 mps 762 mmHg 26%
    11:00 +5°C° 0 mm 1 mps 762 mmHg 26%
    12:00 +5°C° 0 mm 2 mps 761 mmHg 26%
    13:00 +6°C° 0 mm 2 mps 761 mmHg 26%
    14:00 +6°C° 0 mm 2 mps 761 mmHg 32%
    15:00 +6°C° 0 mm 2 mps 761 mmHg 38%
    16:00 +7°C° 0 mm 1 mps 761 mmHg 44%
    17:00 +4°C° 0 mm 2 mps 761 mmHg 46%
    18:00 +3°C° 0 mm 2 mps 761 mmHg 49%
    19:00 +2°C° 0 mm 2 mps 761 mmHg 52%
    20:00 +2°C° 0 mm 2 mps 761 mmHg 53%
    21:00 +2°C° 0 mm 2 mps 761 mmHg 55%
    22:00 +1°C° 0 mm 2 mps 761 mmHg 57%
    23:00 +1°C° 0 mm 2 mps 761 mmHg 58%

    Tomorrow, 25 February, Monday

    Time Temperature Precipitation Wind Pressure Humidity
    00:00 +1°C° 0 mm 2 mps 761 mmHg 59%
    01:00 +1°C° 0 mm 2 mps 761 mmHg 60%
    02:00 +1°C° 0 mm 2 mps 761 mmHg 61%
    03:00 +1°C° 0 mm 2 mps 760 mmHg 62%
    04:00 +1°C° 0 mm 2 mps 760 mmHg 62%
    05:00 +1°C° 0 mm 2 mps 760 mmHg 64%
    06:00 +1°C° 0 mm 2 mps 760 mmHg 66%
    07:00 +1°C° 0 mm 2 mps 760 mmHg 67%
    08:00 +2°C° 0 mm 3 mps 760 mmHg 63%
    09:00 +4°C° 0 mm 3 mps 760 mmHg 58%
    10:00 +5°C° 0 mm 4 mps 760 mmHg 53%
    11:00 +6°C° 0 mm 4 mps 760 mmHg 53%
    12:00 +7°C° 0 mm 4 mps 760 mmHg 53%
    13:00 +8°C° 0 mm 4 mps 760 mmHg 53%
    14:00 +8°C° 0 mm 4 mps 759 mmHg 57%
    15:00 +9°C° 0 mm 3 mps 759 mmHg 60%
    16:00 +9°C° 0 mm 3 mps 758 mmHg 64%
    17:00 +7°C° 0 mm 3 mps 759 mmHg 68%
    18:00 +5°C° 0 mm 3 mps 759 mmHg 73%
    19:00 +3°C° 0 mm 3 mps 759 mmHg 78%
    20:00 +3°C° 0 mm 3 mps 759 mmHg 79%
    21:00 +3°C° 0 mm 3 mps 759 mmHg 80%
    22:00 +2°C° 0 mm 3 mps 759 mmHg 81%
    23:00 +2°C° 0 mm 3 mps 759 mmHg 82%

    Day after tomorrow, 26 February, Tuesday

    Time Temperature Precipitation Wind Pressure Humidity
    00:00 +2°C° 0 mm 3 mps 759 mmHg 83%
    01:00 +2°C° 0 mm 3 mps 758 mmHg 83%
    02:00 +2°C° 0 mm 3 mps 758 mmHg 82%
    03:00 +2°C° 0 mm 3 mps 758 mmHg 82%
    04:00 +2°C° 0 mm 3 mps 757 mmHg 81%
    05:00 +2°C° 0 mm 3 mps 757 mmHg 82%
    06:00 +2°C° 0 mm 3 mps 757 mmHg 82%
    07:00 +2°C° 0 mm 3 mps 757 mmHg 83%
    08:00 +3°C° 0 mm 4 mps 757 mmHg 75%
    09:00 +5°C° 0 mm 4 mps 756 mmHg 66%
    10:00 +7°C° 0 mm 5 mps 756 mmHg 57%
    11:00 +8°C° 0 mm 5 mps 756 mmHg 55%
    12:00 +8°C° 0 mm 5 mps 756 mmHg 52%
    13:00 +9°C° 0 mm 5 mps 756 mmHg 50%
    14:00 +9°C° 0 mm 5 mps 755 mmHg 53%
    15:00 +9°C° 0 mm 5 mps 755 mmHg 56%
    16:00 +8°C° 0 mm 5 mps 755 mmHg 59%
    17:00 +7°C° 0 mm 5 mps 755 mmHg 63%
    18:00 +6°C° 0 mm 4 mps 755 mmHg 68%
    19:00 +5°C° 0 mm 3 mps 756 mmHg 72%
    20:00 +5°C° 0 mm 3 mps 756 mmHg 74%
    21:00 +4°C° 0 mm 3 mps 756 mmHg 77%
    22:00 +4°C° 0 mm 3 mps 756 mmHg 79%
    23:00 +4°C° 0 mm 3 mps 756 mmHg 81%

    27 February, Wednesday

    Time Temperature Precipitation Wind Pressure Humidity
    00:00 +4°C° 0 mm 2 mps 756 mmHg 84%
    01:00 +4°C° 0 mm 2 mps 756 mmHg 86%
    02:00 +3°C° 0 mm 2 mps 756 mmHg 87%
    03:00 +3°C° 0 mm 2 mps 756 mmHg 88%
    04:00 +4°C° 0 mm 1 mps 755 mmHg 89%
    05:00 +4°C° 0 mm 1 mps 755 mmHg 89%
    06:00 +4°C° 0 mm 1 mps 755 mmHg 88%
    07:00 +4°C° 0 mm 1 mps 755 mmHg 88%
    08:00 +5°C° 0 mm 2 mps 755 mmHg 80%
    09:00 +7°C° 0 mm 2 mps 755 mmHg 72%
    10:00 +8°C° 0 mm 2 mps 755 mmHg 64%
    11:00 +10°C° 0 mm 2 mps 754 mmHg 58%
    12:00 +11°C° 0 mm 3 mps 754 mmHg 52%
    13:00 +13°C° 0 mm 3 mps 753 mmHg 47%
    14:00 +13°C° 0 mm 3 mps 753 mmHg 49%
    15:00 +14°C° 0 mm 2 mps 752 mmHg 50%
    16:00 +14°C° 0 mm 2 mps 752 mmHg 52%
    17:00 +12°C° 0 mm 2 mps 752 mmHg 57%
    18:00 +10°C° 0 mm 2 mps 751 mmHg 61%
    19:00 +8°C° 0 mm 2 mps 751 mmHg 66%
    20:00 +8°C° 0 mm 2 mps 751 mmHg 67%
    21:00 +7°C° 0 mm 2 mps 751 mmHg 68%
    22:00 +7°C° 0 mm 3 mps 751 mmHg 69%
    23:00 +7°C° 0 mm 3 mps 750 mmHg 67%

    28 February, Thursday

    Time Temperature Precipitation Wind Pressure Humidity
    00:00 +5°C° 0 mm 3 mps 750 mmHg 66%
    01:00 +5°C° 0 mm 3 mps 750 mmHg 65%
    02:00 +5°C° 0 mm 3 mps 749 mmHg 65%
    03:00 +5°C° 0 mm 3 mps 748 mmHg 65%
    04:00 +5°C° 0 mm 3 mps 748 mmHg 64%
    05:00 +4°C° 0 mm 3 mps 748 mmHg 65%
    06:00 +4°C° 0 mm 3 mps 747 mmHg 66%
    07:00 +4°C° 0 mm 3 mps 747 mmHg 67%
    08:00 +6°C° 0 mm 4 mps 747 mmHg 61%
    09:00 +8°C° 0 mm 5 mps 746 mmHg 56%
    10:00 +10°C° 0 mm 5 mps 746 mmHg 51%
    11:00 +11°C° 0 mm 6 mps 746 mmHg 51%
    12:00 +13°C° 0 mm 6 mps 745 mmHg 51%
    13:00 +14°C° 0 mm 7 mps 745 mmHg 51%
    14:00 +13°C° 0 mm 6 mps 745 mmHg 54%
    15:00 +13°C° 0 mm 6 mps 745 mmHg 57%
    16:00 +13°C° 0 mm 6 mps 744 mmHg 59%
    17:00 +10°C° 0 mm 5 mps 745 mmHg 67%
    18:00 +9°C° 0 mm 5 mps 745 mmHg 74%
    19:00 +8°C° 0 mm 4 mps 745 mmHg 81%
    20:00 +7°C° 0 mm 4 mps 746 mmHg 84%
    21:00 +6°C° 0 mm 4 mps 746 mmHg 87%
    22:00 +6°C° 0 mm 4 mps 746 mmHg 91%
    23:00 +5°C° 0 mm 4 mps 746 mmHg 92%

    1 March, Friday

    Time Temperature Precipitation Wind Pressure Humidity
    00:00 +5°C° 0 mm 3 mps 746 mmHg 93%
    01:00 +4°C° 0 mm 3 mps 746 mmHg 94%
    02:00 +4°C° 0 mm 3 mps 746 mmHg 93%
    03:00 +4°C° 0 mm 3 mps 746 mmHg 92%
    04:00 +4°C° 0 mm 3 mps 746 mmHg 91%
    05:00 +4°C° 0 mm 3 mps 747 mmHg 91%
    06:00 +3°C° 0 mm 3 mps 747 mmHg 91%
    07:00 +3°C° 0 mm 3 mps 747 mmHg 91%
    08:00 +4°C° 0 mm 4 mps 747 mmHg 86%
    09:00 +5°C° 0 mm 4 mps 747 mmHg 81%
    10:00 +6°C° 0 mm 4 mps 748 mmHg 76%
    11:00 +6°C° 0 mm 5 mps 748 mmHg 71%
    12:00 +7°C° 0 mm 5 mps 748 mmHg 67%
    13:00 +7°C° 0 mm 5 mps 748 mmHg 62%
    14:00 +7°C° 0 mm 4 mps 748 mmHg 62%
    15:00 +7°C° 0 mm 4 mps 747 mmHg 61%
    16:00 +7°C° 0 mm 4 mps 747 mmHg 61%
    17:00 +7°C° 0 mm 3 mps 748 mmHg 65%
    18:00 +5°C° 0 mm 3 mps 748 mmHg 69%
    19:00 +5°C° 0 mm 2 mps 748 mmHg 73%
    20:00 +4°C° 0 mm 2 mps 749 mmHg 74%
    21:00 +4°C° 0 mm 2 mps 749 mmHg 75%
    22:00 +3°C° 0 mm 2 mps 749 mmHg 76%
    23:00 +3°C° 0 mm 2 mps 750 mmHg 77%
    Show more